Regional Weather Roundup
Issued by NWS

Home | Current Version | Previous Version | Text Only | Print | Product List | Glossary Off
Versions: 1 2 3 4 5 6 7 8 9 10 11 12 13 14 15 16 17 18 19 20 21 22 23 24 25 26 27 28 29 30 31 32 33 34 35 36 37 38 39 40 41 42 43 44 45 46 47 48 49 50

000
ASUS44 KMEG 292300
RWRTN
TENNESSEE HOURLY STATE WEATHER ROUNDUP
NATIONAL WEATHER SERVICE MEMPHIS TN
600 PM CDT MON JUN 29 2015

TNZ002-004-019-021-049-052-054-088>092-300000-
WEST TENNESSEE

CITY           SKY/WX    TMP DP  RH WIND       PRES   REMARKS
MEMPHIS INTL   PTSUNNY   89  69  51 SW10      29.88F HX  93
NWS MEMPHIS      N/A     90 N/A N/A MISG        N/A
JACKSON        MOSUNNY   87  70  56 SW12      29.86F HX  92
DYERSBURG        N/A    N/A N/A N/A MISG        N/A
PARIS          SUNNY     79  68  69 CALM      29.86R
LEXINGTON      SUNNY     86  72  62 SW7       29.86S HX  92
$$

TNZ008-025-027-028-033-062-065-066-300000-
NORTH MIDDLE TENNESSEE

CITY           SKY/WX    TMP DP  RH WIND       PRES   REMARKS
NASHVILLE      PTSUNNY   85  70  60 SW14G20   29.86S
CLARKSVILLE    PTSUNNY   75  70  84 SW3       29.85R
COOKEVILLE     MOSUNNY   82  72  69 SW8       29.89R
CROSSVILLE     PTSUNNY   77  63  61 SW7       29.95S
$$

TNZ061-075-076-078-094-096-097-300000-
SOUTH MIDDLE TENNESSEE

CITY           SKY/WX    TMP DP  RH WIND       PRES   REMARKS
FAYETTEVILLE   PTSUNNY   82  64  54 SW7       29.92S
TULLAHOMA      PTSUNNY   82  66  57 SW10      29.93R
WINCHESTER     MOSUNNY   82  66  57 SW8       29.92S
SHELBYVILLE    PTSUNNY   82  70  65 SW10      29.90S
$$

TNZ017-018-042-046-047-300000-
NORTHEAST TENNESSEE

CITY           SKY/WX    TMP DP  RH WIND       PRES   REMARKS
TRI CITIES     MOSUNNY   81  59  47 SW12      29.93S
ELIZABETHTON   PTCLDY    79  57  47 SW9       29.94S
$$

TNZ012-013-036-069-073-074-300000-
CENTRAL EAST TENNESSEE

CITY           SKY/WX    TMP DP  RH WIND       PRES   REMARKS
KNOXVILLE      PTSUNNY   82  62  50 SW18      29.90S
OAK RIDGE      PTSUNNY   83  64  52 VRB6      29.91S
GATLINBURG     PTCLDY    82  61  47 W14       29.90S
$$

TNZ083-085-099-300000-
SOUTHEAST TENNESSEE

CITY           SKY/WX    TMP DP  RH WIND       PRES   REMARKS
CHATTANOOGA    PTSUNNY   84  63  49 SW13      29.91F
$$

SKY/WX REPORTED AS FAIR MEANS FEW OR NO CLOUDS BELOW
12 THOUSAND FEET.




USA.gov is the U.S. government's official web portal to all federal, state and local government web resources and services.